Buy Sell Trade

Welcome to WRMJ’s Buy Sell Trade program!

We welcome your participation every Saturday morning from 8:30 to 9:00. Here are a few guidelines:

  • Call 309-582-5626 between 8:30 and 9:00 a.m. to be on the program.
  • Only four items will be accepted per call.
  • Only animals that are “free” will be accepted.
  • Sorry, but we don’t accept …
    • Garage sale items
    • Real estate
    • Licensed vehicles or vehicles to be parted out
    • Mattresses
    • Guns
    • Ammunition
DATETYPEITEMPHONE
5/13/17FSOAK ENTERTAINMENT CENTER - $50309-582-2925
5/13/17FSPUSH MOWER - $100309-582-7293
5/13/17FSJOHN DEERE RIDING MOWER, 42" DECK 20hp. W/BAGGER - $1000309-337-2717
5/13/17FREETRACTOR TIRE FOR A SAND BOX OR FLOWER BED309-798-5443
5/13/17FREEBASKETS FOR CRAFTS309-798-5443
5/13/17FSRAM GOLF CLUBS & BAG - $200309-798-5443
5/13/17FSASSORTED GOLF CLUBS & BAGS - $75309-798-5443
5/13/17FSCOUCH - $50309-236-1676
5/13/17FSSMALL CHEST FREEZER - $30309-236-1676
5/13/17FSSMALL GAS STOVE - $30309-236-1676
5/13/17FSANTIQUE DRESSER - $30309-236-1676
5/13/17FSJOHN DEERE 111 LAWN TRACTOR w/42" FRONT BLADE #750 - $650 WITHOUT BLADE563-554-4617
5/13/17FSROSE OF SHARON BUSHES, 3 COLORS309-593-2231
5/13/17FSSIMCO SADDLE309-593-2231
5/13/17LFGAS OR ELECTRIC HEDGE TRIMMERS309-737-7187
5/13/17FS5 PIECE BEDROOM SET, DRESSER w/MIRROR, CHEST DRESSER, NIGHT STAND & BED FRAME - $400 obo319-572-2134
5/13/17FSJOHN DEERE LAWN TRACTOR, NEEDS WORK - $100309-582-2771
5/13/17FSCHOP SAW, NEEDS WORK - $50309-582-2771
5/13/17FSAQUARIUM - $50309-582-2771
5/13/17FSROLL BAR FOR A PICKUP - $50309-582-2771
5/13/17FSBARBED WIRE TIGHTENER - $30309-235-9353
5/20/17FREEDESKTOP READER FOR THE BLIND309-221-7433
5/20/17LFHEARING AIDS309-221-9791
5/20/17LFCREOSOTE309-221-9791
5/20/17FS30' ALUMINUM EXTENSION LADDER - $75309-299-3725
5/20/17FSELECTRIC FENCE POSTS w/INSULATORS309-299-3725
5/20/17FSDECORATIVE ROCKS309-299-3725
5/20/17FS18" TRACTOR CYLINDER w/HOSES309-299-3725
5/20/17FSKENMORE PORTABLE DISHWASHER - $75 obo309-582-5916
5/20/17FSLARGE WALL MIRROR - $30 obo309-625-0004
in Aledo
5/20/17FSASSORTED RIGHT HANDED GOLF CLUBS - $10 obo309-625-0004
in Aledo
5/20/17FSVINTAGE 1930'S MILK GLASS VASES - $10 obo309-625-0004
in Aledo
5/20/17FSSCHWINN WINDYNE EXERCISE BIKE - $300563-289-5594
5/20/17FREE2 CONCRETE GOOSE PLANTERS309-737-2995
5/20/17FSHEAVY DUTY DRILL PRESS & BENCH GRINDER - $200 FOR BOTH309-737-3646
5/20/17FSANTIQUE ROTO TILLER - $75309-582-8380
5/20/17FS60 LP RECORDS FROM THE 50's & 60's - $50 CALL FOR ADDITIONAL DETAILS309-582-8380
5/20/17FS40 CHILDREN'S 8-TRACK TAPES - $30309-582-8380
5/20/17FS1973 JOHN DEERE 110 RESTORED LAWN TRACTOR w/42" FRONT BLADE - $750 WITH BLADE/$650 WITHOUT BLADE563-554-4617
5/27/17FSROSE-A-SHARIN' BUSHES - $3 EACH309-593-2231
5/27/17FSSIMCO SADDLE IN EXCELLENT CONDITION, CART & HARNESS309-593-2231
5/27/17FSHOT TUB COVER 73" x 62" $200 obo309-738-4876
5/27/17FSOLD TEEPEE STYLE DEER BLIND 68" x 68" x 78" HIGH $25309-738-4876
5/27/17FS2003 PICKUP TRUCK CAMPER309-299-8236
5/27/17FSANTIQUE WALKING PLOW $350 obo309-582-4031
5/27/17FSPORTABLE DISHWASHER $50 obo582-5916
5/27/17FSLARGE GAS GRILL w/TANK $25582-4416
5/27/17FSCHARCOAL GRILL $10582-4416
5/27/17FSCAST IRON GRILL $10582-4416
5/27/17FSPICNIC TABLE $10582-4416
5/27/17FS or TRADEPAPERBACK BOOKS $5582-5408
5/27/17FSJOHN DEERE LAWN TRACTOR 9hp. 30" DECK $275309-768-2675
5/27/17FS6hp. JOHNSON OUTBOARD MOTOR w/6 GALLON TANK309-729-5206
5/27/17FSDRILL PRESS $100582-2771
5/27/17FSCHAR-BROIL GAS GRILL w/TANK $50582-2771
5/27/17FS4 PT. ROLL BAR FOR A FULL SIZE PICKUP $50582-2771
5/27/17FSJOHN DEERE 111 LAWN TRACTOR - NEEDS WORK $100582-2771
5/27/17FSHEAVY DUTY DRILL PRESS & HEAVY DUTY BENCH GRINDER $150/BOTH309-737-3646